timestamp,surface_pressure_avg,surface_temp_avg,battery_voltage,lat,long
2019-01-15 00:00:00+00:00,238.6448,0.66,13.05,47.84626,-54.09684
2019-01-15 00:10:00+00:00,240.6097,0.71,12.97,47.84626,-54.09684
2019-01-15 00:20:00+00:00,235.1248,0.7,13.05,47.84626,-54.09684
2019-01-15 00:30:00+00:00,230.5881,0.65,13.05,47.84626,-54.09684
2019-01-15 00:40:00+00:00,231.5164,0.66,13.05,47.84626,-54.09684
2019-01-15 00:50:00+00:00,228.7547,0.6,13.05,47.84626,-54.09684
2019-01-15 01:00:00+00:00,233.8465,0.6,12.97,47.84626,-54.09684
2019-01-15 01:10:00+00:00,240.2364,0.6,12.97,47.84626,-54.09684
2019-01-15 01:20:00+00:00,235.7797,0.5,13.05,47.84626,-54.09684
2019-01-15 01:30:00+00:00,234.9565,0.57,13.05,47.84626,-54.09684
2019-01-15 01:40:00+00:00,240.1864,0.66,13.05,47.84626,-54.09684
2019-01-15 01:50:00+00:00,239.6198,0.7,13.05,47.84626,-54.09684
2019-01-15 02:00:00+00:00,237.7165,0.7,12.97,47.84626,-54.09684
2019-01-15 02:10:00+00:00,246.9514,0.7,12.89,47.84626,-54.09684
2019-01-15 02:20:00+00:00,253.063,0.71,13.05,47.84626,-54.09684
2019-01-15 02:30:00+00:00,246.9181,0.73,13.05,47.84626,-54.09684
2019-01-15 02:40:00+00:00,249.8514,0.73,13.05,47.84626,-54.09684
2019-01-15 02:50:00+00:00,267.3664,0.8,13.05,47.84626,-54.09684
2019-01-15 03:00:00+00:00,272.6447,0.9,12.97,47.84626,-54.09684
2019-01-15 03:10:00+00:00,267.4348,0.8,12.89,47.84626,-54.09684
2019-01-15 03:20:00+00:00,275.4631,0.9,12.97,47.84626,-54.09684
2019-01-15 03:30:00+00:00,289.8713,1.07,13.05,47.84626,-54.09684
2019-01-15 03:40:00+00:00,298.7297,1.2,13.05,47.84626,-54.09684
2019-01-15 03:50:00+00:00,296.1747,1.2,13.05,47.84626,-54.09684
2019-01-15 04:00:00+00:00,293.788,1.14,12.97,47.84626,-54.09684
2019-01-15 04:10:00+00:00,301.1064,1.19,12.89,47.84626,-54.09684
2019-01-15 04:20:00+00:00,308.9747,1.2,12.97,47.84626,-54.09684
2019-01-15 04:30:00+00:00,303.683,1.2,12.97,47.84626,-54.09684
2019-01-15 04:40:00+00:00,297.5831,1.2,13.05,47.84626,-54.09684
2019-01-15 04:50:00+00:00,304.3264,1.2,13.05,47.84626,-54.09684
2019-01-15 05:00:00+00:00,312.2447,1.2,12.97,47.84626,-54.09684
2019-01-15 05:10:00+00:00,311.7197,1.2,12.89,47.84626,-54.09684
2019-01-15 05:20:00+00:00,317.1213,1.2,12.97,47.84626,-54.09684
2019-01-15 05:30:00+00:00,323.4764,1.2,12.97,47.84626,-54.09684
2019-01-15 05:40:00+00:00,322.9296,1.2,13.05,47.84626,-54.09684
2019-01-15 05:50:00+00:00,319.6564,1.2,13.05,47.84626,-54.09684
2019-01-15 06:00:00+00:00,321.5797,1.2,12.97,47.84626,-54.09684
2019-01-15 06:10:00+00:00,324.2596,1.2,12.89,47.84626,-54.09684
2019-01-15 06:20:00+00:00,328.6379,1.2,12.97,47.84626,-54.09684
2019-01-15 06:30:00+00:00,325.043,1.2,12.97,47.84626,-54.09684
2019-01-15 06:40:00+00:00,320.4479,1.1,13.05,47.84626,-54.09684
2019-01-15 06:50:00+00:00,317.003,1.11,13.05,47.84626,-54.09684
2019-01-15 07:00:00+00:00,318.0197,1.12,12.97,47.84626,-54.09684
2019-01-15 07:10:00+00:00,309.923,1.1,12.89,47.84626,-54.09684
2019-01-15 07:20:00+00:00,306.8747,1.1,12.97,47.84626,-54.09684
2019-01-15 07:30:00+00:00,304.5081,1.1,12.97,47.84626,-54.09684
2019-01-15 07:40:00+00:00,303.9446,1.1,12.97,47.84626,-54.09684
2019-01-15 07:50:00+00:00,298.6714,1.08,13.05,47.84626,-54.09684
2019-01-15 08:00:00+00:00,291.1448,1.06,12.97,47.84626,-54.09684
2019-01-15 08:10:00+00:00,283.5964,1.0,12.89,47.84626,-54.09684
2019-01-15 08:20:00+00:00,280.973,1.0,12.97,47.84626,-54.09684
2019-01-15 08:30:00+00:00,285.3613,1.0,12.97,47.84626,-54.09684
2019-01-15 08:40:00+00:00,278.3197,0.95,12.97,47.84626,-54.09684
2019-01-15 08:50:00+00:00,276.4314,0.97,13.05,47.84626,-54.09684
2019-01-15 09:00:00+00:00,277.2881,0.96,12.97,47.84626,-54.09684
2019-01-15 09:10:00+00:00,273.3747,0.95,12.89,47.84626,-54.09684
2019-01-15 09:20:00+00:00,255.8031,0.9,12.97,47.84626,-54.09684
2019-01-15 09:30:00+00:00,244.9348,0.8,12.97,47.84626,-54.09684
2019-01-15 09:40:00+00:00,246.603,0.89,12.97,47.84626,-54.09684
2019-01-15 09:50:00+00:00,245.1514,0.9,12.97,47.84626,-54.09684
2019-01-15 10:00:00+00:00,237.7347,0.9,12.97,47.84626,-54.09684
2019-01-15 10:10:00+00:00,231.6498,0.89,12.89,47.84626,-54.09684
2019-01-15 10:20:00+00:00,232.3998,0.88,12.97,47.84626,-54.09684
2019-01-15 10:30:00+00:00,230.0198,0.45,12.97,47.84626,-54.09684
2019-01-15 10:40:00+00:00,225.0914,0.29,12.97,47.84626,-54.09684
2019-01-15 10:50:00+00:00,223.8581,0.4,12.97,47.84626,-54.09684
2019-01-15 11:00:00+00:00,225.3914,0.62,12.89,47.84626,-54.09684
2019-01-15 11:10:00+00:00,222.2931,0.6,12.89,47.84626,-54.09684
2019-01-15 11:20:00+00:00,217.8531,0.45,12.97,47.84626,-54.09684
2019-01-15 11:30:00+00:00,224.9464,0.45,12.97,47.84626,-54.09684
2019-01-15 11:40:00+00:00,229.0781,0.58,12.97,47.84626,-54.09684
2019-01-15 11:50:00+00:00,228.8681,0.5,12.97,47.84626,-54.09684
2019-01-15 12:00:00+00:00,230.8247,0.5,12.89,47.84626,-54.09684
2019-01-15 12:10:00+00:00,228.7914,0.5,12.89,47.84626,-54.09684
2019-01-15 12:20:00+00:00,225.3581,0.4,12.97,47.84626,-54.09684
2019-01-15 12:30:00+00:00,231.2598,0.4,12.97,47.84626,-54.09684
2019-01-15 12:40:00+00:00,234.3931,0.5,12.97,47.84626,-54.09684
2019-01-15 12:50:00+00:00,227.1997,0.5,13.05,47.84626,-54.09684
2019-01-15 13:00:00+00:00,229.2331,0.46,12.97,47.84626,-54.09684
2019-01-15 13:10:00+00:00,238.3214,0.49,12.89,47.84626,-54.09684
2019-01-15 13:20:00+00:00,237.2131,0.4,12.97,47.84626,-54.09684
2019-01-15 13:30:00+00:00,236.7131,0.29,12.97,47.84626,-54.09684
2019-01-15 13:40:00+00:00,241.8264,0.19,12.97,47.84626,-54.09684
2019-01-15 13:50:00+00:00,242.2047,0.0,12.97,47.84626,-54.09684
2019-01-15 14:00:00+00:00,245.0331,0.19,12.89,47.84626,-54.09684
2019-01-15 14:10:00+00:00,255.4148,0.45,12.89,47.84626,-54.09684
2019-01-15 14:20:00+00:00,265.9364,0.48,12.97,47.84626,-54.09684
2019-01-15 14:30:00+00:00,271.808,-0.05,12.97,47.84626,-54.09684
2019-01-15 14:40:00+00:00,276.5098,-0.7,12.97,47.84626,-54.09684
2019-01-15 14:50:00+00:00,284.123,-0.52,13.05,47.84626,-54.09684
2019-01-15 15:00:00+00:00,288.5214,-0.4,12.97,47.84626,-54.09684
2019-01-15 15:10:00+00:00,293.6847,-0.4,12.89,47.84626,-54.09684
2019-01-15 15:20:00+00:00,298.0464,-0.6,12.97,47.84626,-54.09684
2019-01-15 15:30:00+00:00,305.238,-0.61,12.97,47.84626,-54.09684
2019-01-15 15:40:00+00:00,311.9347,-0.6,13.05,47.84626,-54.09684
2019-01-15 15:50:00+00:00,319.688,-0.61,13.05,47.84626,-54.09684
2019-01-15 16:00:00+00:00,324.2864,-0.63,12.97,47.84626,-54.09684
2019-01-15 16:10:00+00:00,322.0713,-0.7,12.89,47.84626,-54.09684
2019-01-15 16:20:00+00:00,321.4913,-0.57,13.05,47.84626,-54.09684
2019-01-15 16:30:00+00:00,331.7863,-0.24,13.05,47.84626,-54.09684
2019-01-15 16:40:00+00:00,330.5597,-0.24,13.05,47.84626,-54.09684
2019-01-15 16:50:00+00:00,327.5997,-0.6,13.05,47.84626,-54.09684
2019-01-15 17:00:00+00:00,332.8813,-0.52,12.97,47.84626,-54.09684
2019-01-15 17:10:00+00:00,338.6546,-0.7,12.89,47.84626,-54.09684
2019-01-15 17:20:00+00:00,335.0846,-0.7,12.97,47.84626,-54.09684
2019-01-15 17:30:00+00:00,331.978,-0.64,12.97,47.84626,-54.09684
2019-01-15 17:40:00+00:00,330.598,-0.52,13.05,47.84626,-54.09684
2019-01-15 17:50:00+00:00,336.3063,-0.7,13.05,47.84626,-54.09684
2019-01-15 18:00:00+00:00,336.913,-0.8,12.97,47.84626,-54.09684
2019-01-15 18:10:00+00:00,335.063,-0.8,12.89,47.84626,-54.09684
2019-01-15 18:20:00+00:00,333.283,-0.8,12.97,47.84626,-54.09684
2019-01-15 18:30:00+00:00,333.0063,-0.8,12.97,47.84626,-54.09684
2019-01-15 18:40:00+00:00,331.3296,-0.75,12.97,47.84626,-54.09684
2019-01-15 18:50:00+00:00,332.3312,-0.6,12.97,47.84626,-54.09684
2019-01-15 19:00:00+00:00,333.6614,-0.42,12.89,47.84626,-54.09684
2019-01-15 19:10:00+00:00,331.2046,-0.34,12.81,47.84626,-54.09684
2019-01-15 19:20:00+00:00,324.203,-0.3,12.97,47.84626,-54.09684
2019-01-15 19:30:00+00:00,325.013,-0.3,12.97,47.84626,-54.09684
2019-01-15 19:40:00+00:00,319.6964,0.07,12.97,47.84626,-54.09684
2019-01-15 19:50:00+00:00,312.5814,0.46,12.97,47.84626,-54.09684
2019-01-15 20:00:00+00:00,316.348,0.6,12.89,47.84626,-54.09684
2019-01-15 20:10:00+00:00,317.7913,-0.26,12.81,47.84626,-54.09684
2019-01-15 20:20:00+00:00,305.5096,0.1,12.97,47.84626,-54.09684
2019-01-15 20:30:00+00:00,295.063,0.2,12.97,47.84626,-54.09684
2019-01-15 20:40:00+00:00,299.1564,0.28,12.97,47.84626,-54.09684
2019-01-15 20:50:00+00:00,291.0914,0.3,12.97,47.84626,-54.09684
2019-01-15 21:00:00+00:00,277.783,0.3,12.89,47.84626,-54.09684
2019-01-15 21:10:00+00:00,277.4897,-0.05,12.81,47.84626,-54.09684
2019-01-15 21:20:00+00:00,279.053,-0.83,12.97,47.84626,-54.09684
2019-01-15 21:30:00+00:00,268.3197,-0.9,12.97,47.84626,-54.09684
2019-01-15 21:40:00+00:00,262.0747,-0.7,12.97,47.84626,-54.09684
2019-01-15 21:50:00+00:00,265.5214,-0.62,12.97,47.84626,-54.09684
2019-01-15 22:00:00+00:00,263.2314,-0.21,12.89,47.84626,-54.09684
2019-01-15 22:10:00+00:00,252.8447,-0.12,12.81,47.84626,-54.09684
2019-01-15 22:20:00+00:00,251.4381,-0.13,12.97,47.84626,-54.09684
2019-01-15 22:30:00+00:00,251.4381,0.14,12.97,47.84626,-54.09684
2019-01-15 22:40:00+00:00,245.0331,0.35,12.97,47.84626,-54.09684
2019-01-15 22:50:00+00:00,242.0647,0.4,12.97,47.84626,-54.09684
2019-01-15 23:00:00+00:00,242.8398,0.3,12.89,47.84626,-54.09684
2019-01-15 23:10:00+00:00,241.7281,0.2,12.81,47.84626,-54.09684
2019-01-15 23:20:00+00:00,235.6298,-0.1,12.97,47.84626,-54.09684
2019-01-15 23:30:00+00:00,232.4198,-0.01,12.97,47.84626,-54.09684
2019-01-15 23:40:00+00:00,234.6798,-0.05,12.97,47.84626,-54.09684
2019-01-15 23:50:00+00:00,232.1115,0.0,12.97,47.84626,-54.09684
